#timestamp,LO_Frequency,Hit,StdDev 
1615093215.2,286047000.6,N
1615093235.1,286047000.4,N
1615093236.0,286047000.4,N
1615093255.8,286047000.2,N
1615093275.6,286047002.7,Y
1615093295.5,286047001.3,P
1615093315.3,286047002.2,P
1615093335.2,286047005.9,P
1615093355.9,286047004.1,N
1615093375.7,286047003.6,N
1615093395.6,286047003.5,N
1615093415.4,286047005.5,Y
1615093435.2,286047004.3,P
1615093455.1,286047002.3,P
1615093456.0,286047002.3,N
1615093475.8,286047001.4,N
1615093495.7,286047001.3,N
1615093515.5,286047004.3,Y
1615093535.3,286047002.6,P
1615093555.2,286047001.8,P
1615093575.9,286046999.8,N
1615093595.7,286046998.2,N
1615093615.6,286047000.8,N
1615093635.4,286046999.9,N
1615093655.2,286047000.1,N
1615093675.1,286047000.1,N
1615093676.0,286047000.1,N
1615093695.8,286046999.8,N
1615093715.7,286046999.9,N
1615093735.5,286047002.2,N
1615093755.3,286047000.4,N
1615093775.2,286047000.8,N
1615093795.0,286047000.5,N
1615093795.9,286047000.5,N
1615093815.8,286047002.3,N
1615093835.6,286047000.3,N
1615093855.4,286047000.5,N
1615093875.3,286047001.2,N
1615093895.1,286046999.4,N
1615093915.8,286046998.4,N
1615093935.7,286046998.1,N
1615093955.5,286047000.4,N
1615093975.3,286047000.9,N
1615093995.2,286047001.1,N
1615094015.0,286046998.5,N
1615094015.9,286046998.5,N
1615094035.8,286047000.2,N
1615094055.6,286047001.5,N
1615094075.4,286047002.2,N
1615094095.3,286047001.6,N
1615094115.1,286047001.6,N
1615094135.8,286047001.3,N
1615094155.7,286047004.0,Y
1615094175.5,286047002.5,P
1615094195.4,286046999.8,N
1615094215.2,286047001.3,N
1615094235.0,286047002.5,N
1615094235.9,286047002.5,N
1615094255.8,286047002.7,N
1615094275.6,286047004.4,Y
1615094295.5,286047001.2,P
1615094315.3,286046998.1,P
1615094335.1,286046999.9,N
1615094355.9,286047000.6,N
1615094375.7,286046998.8,N
1615094395.5,286046999.1,N
1615094415.4,286046998.8,N
1615094435.2,286046998.8,N
1615094455.1,286047000.7,N
1615094456.0,286047000.7,N
1615094475.8,286047000.1,N
1615094495.6,286047002.4,N
1615094515.5,286047000.1,N
1615094535.3,286047002.4,N
1615094555.1,286047002.8,N
1615094575.9,286047002.7,N
1615094595.7,286047002.5,N
1615094615.6,286047000.1,N
1615094635.4,286047001.9,N
1615094655.2,286047002.2,N
1615094675.1,286047002.3,N
1615094676.0,286047002.3,N
1615094695.8,286047002.1,N
1615094715.6,286047000.1,N
1615094735.5,286047002.7,N
1615094755.3,286047002.1,N
1615094775.1,286046999.8,N
1615094795.9,286047001.9,N
1615094815.7,286047002.2,N
1615094835.6,286047002.8,N
1615094855.4,286047000.4,N
1615094875.2,286047000.5,N
1615094895.1,286047000.1,N
1615094896.0,286047000.1,N
1615094915.8,286047000.6,N
1615094935.7,286047000.6,N
1615094955.5,286047000.6,N
1615094975.3,286047000.7,N
1615094995.2,286046998.6,N
1615095015.9,286046998.6,N
1615095035.7,286046996.6,N
1615095055.6,286046996.7,N
1615095075.4,286046996.8,N
1615095095.2,286046996.5,N
1615095115.1,286046999.4,N
1615095116.0,286046999.4,N
1615095135.8,286046996.9,N
1615095155.7,286046995.0,N
1615095175.5,286046997.7,N
1615095195.3,286046999.6,N
1615095215.2,286046995.4,N
1615095235.0,286046998.0,N
1615095235.9,286046998.0,N
1615095255.8,286046993.4,Y
1615095275.6,286046996.0,P
1615095295.4,286046995.8,N
1615095315.3,286046995.9,N
1615095335.1,286046995.1,Y
1615095355.8,286047001.0,P
1615095375.7,286047001.0,N
1615095395.5,286047001.1,N
1615095415.4,286046999.4,N
1615095435.2,286046998.1,N
1615095455.0,286046999.9,N
1615095455.9,286046999.9,N
1615095475.8,286047000.4,N
1615095495.6,286046998.4,N
1615095515.4,286046998.7,N
1615095535.3,286046997.1,N
1615095555.1,286046996.8,N
1615095575.9,286046997.8,N
1615095595.7,286046995.0,Y
1615095615.5,286046999.3,P
1615095635.4,286046998.7,P
1615095655.2,286046998.1,P
1615095675.0,286046999.2,N
1615095675.9,286046999.2,N
1615095695.8,286046999.6,N
1615095715.6,286046999.5,N
1615095735.5,286046999.0,N
1615095755.3,286046999.3,N
1615095775.1,286046999.0,N
1615095795.9,286046999.6,N
1615095815.7,286046999.1,N
1615095835.5,286047000.0,N
1615095855.4,286047000.8,N
1615095875.2,286046998.2,Y
1615095895.1,286046998.7,P
1615095896.0,286046998.7,P
1615095915.8,286046998.9,P
1615095935.6,286047000.4,N
1615095955.5,286046998.7,N
1615095975.3,286046996.5,Y
1615095995.1,286046999.4,P
1615096015.9,286046999.0,P
1615096035.7,286047000.7,P
1615096055.6,286047000.1,N
1615096075.4,286046999.9,N
1615096095.2,286047001.0,N
1615096115.1,286047000.6,N
1615096116.0,286047000.6,N
1615096135.8,286046998.2,N
1615096155.6,286047000.4,N
1615096175.5,286046998.7,N
1615096195.3,286046998.1,N
1615096215.2,286046998.6,N
1615096235.9,286046999.5,N
1615096255.7,286046998.7,N
1615096275.6,286047000.9,N
1615096295.4,286046998.9,N
1615096315.2,286046996.5,Y
1615096335.1,286047000.5,P
1615096336.0,286047000.5,N
1615096355.8,286047002.4,P
1615096375.7,286047001.0,N
1615096395.5,286046999.8,N
1615096415.3,286047002.1,N
1615096435.2,286046999.9,N
1615096455.9,286047002.4,N
1615096475.7,286047002.8,N
1615096495.6,286047000.1,N
1615096515.4,286047000.3,N
1615096535.3,286046999.8,N
1615096555.1,286047001.6,N
1615096556.0,286047001.6,N
1615096575.8,286047001.4,N
1615096595.7,286046998.1,N
1615096615.5,286046999.1,N
1615096635.3,286047001.2,N
1615096655.2,286046999.3,N
1615096675.0,286046999.5,N
1615096675.9,286046999.5,N
1615096695.8,286046998.4,N
1615096715.6,286047001.2,N
1615096735.4,286046999.4,N
1615096755.3,286046996.9,N
1615096775.1,286046998.5,N
1615096795.8,286046998.6,N
